FW6463 Weather Reports


Display with metric or nautical units.
time (UTC)temp
F
wind
direction
speed
MPH
gust
MPH
rain 1hr
in
rain 24hr
in
rain mn
in
humidity
%
barometer
mb
20260506092557 68 216 4.0 7.0 0.00 0.01 0.00 63 1010.0
20260506091521 68 192 7.0 10.0 0.00 0.01 0.00 62 1010.0
20260506090526 68 178 6.0 11.0 0.00 0.01 0.00 62 1010.1
20260506085531 69 213 6.0 11.0 0.00 0.01 0.00 61 1010.5
20260506084517 69 206 5.0 8.0 0.00 0.01 0.00 60 1010.4
20260506083522 69 186 7.0 12.0 0.00 0.01 0.00 59 1010.5
20260506082527 69 181 6.0 15.0 0.00 0.01 0.00 58 1010.5
20260506081532 69 215 6.0 10.0 0.00 0.01 0.00 58 1010.4
20260506080519 70 219 8.0 13.0 0.00 0.01 0.00 57 1010.4
20260506072519 70 197 7.0 9.0 0.00 0.01 0.00 57 1010.6
20260506071524 70 210 6.0 9.0 0.00 0.01 0.00 57 1010.7
20260506070529 70 182 5.0 8.0 0.00 0.01 0.00 56 1010.8
20260506061517 0 0.0 0.0 0.00 0.01 0.00 1011.5
20260506060523 71 186 7.0 12.0 0.00 0.01 0.00 54 1011.4
20260506050532 71 168 6.0 9.0 0.00 0.01 0.00 52 1012.2
20260506044524 70 206 7.0 11.0 0.00 0.01 0.00 52 1012.1
20260506043529 70 161 5.0 7.0 0.00 0.01 0.00 52 1012.2
20260506042535 71 206 6.0 10.0 0.00 0.01 0.00 51 1012.1
20260506041520 71 202 4.0 7.0 0.00 0.01 0.00 51 1012.1
20260506040525 71 226 5.0 7.0 0.00 0.01 0.00 51 1012.0
20260506035524 71 194 4.0 7.0 0.00 0.01 0.01 50 1012.0
20260506034516 71 206 4.0 6.0 0.00 0.01 0.01 50 1012.2
20260506033521 71 207 4.0 6.0 0.00 0.01 0.01 49 1012.0
20260506032520 72 197 5.0 7.0 0.00 0.01 0.01 48 1011.9
20260506031519 72 198 6.0 10.0 0.00 0.01 0.01 47 1012.0
20260506030517 72 196 6.0 9.0 0.00 0.01 0.01 47 1012.0
20260506025517 72 200 6.0 10.0 0.00 0.01 0.01 47 1012.1
20260506024547 72 184 5.0 9.0 0.00 0.01 0.01 47 1012.1
20260506023532 72 184 5.0 10.0 0.00 0.01 0.01 47 1012.1
20260506022519 72 179 5.0 8.0 0.00 0.01 0.01 47 1012.2
20260506021523 72 206 6.0 12.0 0.00 0.01 0.01 47 1012.2
20260506020529 72 177 7.0 10.0 0.00 0.01 0.01 47 1012.1
20260506015533 73 176 6.0 9.0 0.00 0.01 0.01 47 1011.9
20260506014520 73 167 7.0 11.0 0.00 0.01 0.01 47 1011.9
20260506013524 72 185 4.0 7.0 0.00 0.01 0.01 48 1011.8
20260506012529 73 214 5.0 8.0 0.00 0.01 0.01 47 1011.6
20260506011516 73 183 7.0 11.0 0.00 0.01 0.01 48 1011.5
20260506010541 73 210 4.0 8.0 0.00 0.01 0.01 49 1011.5
20260506005545 73 181 3.0 7.0 0.00 0.01 0.01 49 1011.5
20260506004530 73 195 3.0 6.0 0.00 0.01 0.01 49 1011.4
20260506003517 74 197 4.0 6.0 0.00 0.01 0.01 48 1011.2
20260506002542 74 183 5.0 7.0 0.00 0.01 0.01 47 1011.1
20260506001526 75 188 7.0 11.0 0.00 0.01 0.01 47 1011.1
20260506000611 76 180 6.0 8.0 0.00 0.01 0.01 46 1011.0
20260505235538 76 196 5.0 11.0 0.00 0.01 0.01 47 1010.7
20260505234524 76 183 7.0 9.0 0.00 0.01 0.01 47 1010.7
20260505233528 76 173 7.0 10.0 0.00 0.01 0.01 47 1010.6
20260505232554 77 178 7.0 12.0 0.00 0.01 0.01 46 1010.5
20260505231519 77 237 6.0 8.0 0.00 0.01 0.01 46 1010.5
20260505230524 77 173 9.0 14.0 0.00 0.01 0.01 46 1010.5
20260505225530 77 186 6.0 9.0 0.00 0.01 0.01 47 1010.4
20260505224516 78 176 7.0 13.0 0.00 0.01 0.01 46 1010.5
20260505223541 78 225 6.0 7.0 0.00 0.01 0.01 43 1010.5
20260505222525 79 183 7.0 11.0 0.00 0.01 0.01 42 1010.4
20260505221529 79 218 9.0 15.0 0.00 0.01 0.01 41 1010.4
20260505220518 80 208 8.0 14.0 0.00 0.01 0.01 41 1010.5
20260505215521 80 177 7.0 10.0 0.00 0.01 0.01 41 1010.4
20260505214526 81 197 9.0 14.0 0.00 0.01 0.01 41 1010.4
20260505213531 82 177 8.0 15.0 0.00 0.01 0.01 42 1010.4
20260505212518 82 212 9.0 18.0 0.00 0.01 0.01 43 1010.4
20260505211523 82 158 9.0 15.0 0.00 0.01 0.01 43 1010.4
20260505210527 83 215 7.0 13.0 0.00 0.01 0.01 43 1010.3
20260505205532 83 166 8.0 12.0 0.00 0.01 0.01 43 1010.5
20260505204520 83 215 6.0 10.0 0.00 0.01 0.01 44 1010.5
20260505203524 83 270 9.0 9.0 0.00 0.01 0.01 45 1010.5
20260505202528 82 197 7.0 12.0 0.00 0.01 0.01 45 1010.6
20260505201015 82 192 9.0 17.0 0.00 0.01 0.01 46 1010.8
20260505200020 83 162 8.0 13.0 0.00 0.01 0.01 46 1010.9
20260505195025 82 190 11.0 14.0 0.00 0.01 0.01 47 1011.0
20260505194030 81 189 9.0 14.0 0.00 0.01 0.01 48 1011.0
20260505193016 82 203 9.0 15.0 0.00 0.01 0.01 48 1011.3
20260505192021 82 177 7.0 12.0 0.00 0.01 0.01 47 1011.3
20260505191047 81 176 7.0 12.0 0.00 0.01 0.01 47 1011.5
20260505190030 82 178 8.0 12.0 0.00 0.01 0.01 47 1011.5
20260505185022 82 206 10.0 16.0 0.00 0.01 0.01 47 1011.6
20260505184022 81 189 7.0 11.0 0.00 0.01 0.01 49 1011.6
20260505183028 83 232 9.0 15.0 0.00 0.01 0.01 47 1011.7
20260505182031 83 224 7.0 10.0 0.00 0.01 0.01 47 1011.9
20260505181039 83 235 8.0 13.0 0.00 0.01 0.01 47 1012.1
20260505180023 81 234 9.0 16.0 0.00 0.01 0.01 47 1012.0
20260505175027 82 225 7.0 10.0 0.00 0.01 0.01 47 1012.1
20260505174026 83 233 7.0 14.0 0.00 0.01 0.01 48 1012.1
20260505173039 80 199 9.0 15.0 0.00 0.01 0.01 47 1012.1
20260505172024 82 211 6.0 9.0 0.00 0.01 0.01 48 1012.2
20260505171044 82 270 11.0 15.0 0.00 0.01 0.01 48 1012.4
20260505170016 82 199 9.0 13.0 0.00 0.01 0.01 47 1012.7
20260505165041 81 220 8.0 11.0 0.00 0.01 0.01 48 1012.9
20260505164019 81 218 8.0 13.0 0.00 0.01 0.01 49 1013.0
20260505163038 80 231 10.0 16.0 0.00 0.01 0.01 49 1013.2
20260505162017 80 248 11.0 16.0 0.00 0.01 0.01 50 1013.2
20260505161015 80 247 11.0 16.0 0.00 0.01 0.01 50 1013.3
20260505153024 78 226 9.0 12.0 0.01 0.01 0.01 55 1013.5
20260505152027 0 113 7.0 7.0 0.01 0.01 0.01 1013.7
20260505151032 77 235 9.0 14.0 0.01 0.01 0.01 56 1013.5
20260505125028 70 209 8.0 10.0 0.00 0.00 0.00 60 1013.9
20260505124033 70 211 6.0 12.0 0.00 0.00 0.00 61 1013.9
20260505123019 69 198 5.0 8.0 0.00 0.00 0.00 63 1013.9
20260505122025 68 161 5.0 7.0 0.00 0.00 0.00 65 1014.0
20260505121029 67 224 4.0 8.0 0.00 0.00 0.00 67 1014.0
20260505120015 66 236 5.0 8.0 0.00 0.00 0.00 68 1013.9
20260505115020 65 213 4.0 6.0 0.00 0.00 0.00 68 1013.8
20260505114024 65 219 4.0 5.0 0.00 0.00 0.00 69 1013.7
20260505113029 64 210 3.0 6.0 0.00 0.00 0.00 70 1013.7
20260505112016 64 194 5.0 8.0 0.00 0.00 0.00 69 1013.5
20260505111042 64 189 4.0 6.0 0.00 0.00 0.00 69 1013.5
20260505102028 63 191 5.0 6.0 0.00 0.00 0.00 72 1013.2
20260505101032 62 220 5.0 6.0 0.00 0.00 0.00 73 1013.2
20260505100019 61 223 3.0 4.0 0.00 0.00 0.00 74 1013.0
20260505095043 62 227 3.0 5.0 0.00 0.00 0.00 73 1013.0
20260505094028 62 244 4.0 5.0 0.00 0.00 0.00 72 1013.0
20260505093027 63 219 3.0 5.0 0.00 0.00 0.00 70 1012.8